Location: Plainartige
(45.6866°N, 1.7993°E)
Time: 02:03:35
(UTC+00:00)

BEESAT - Pass Details

Date: 29 June 2022
Orbit: 700 x 706 km, 98.6° (Epoch: 16 August)

Event Time Altitude Azimuth Distance (km) Brightness Sun altitude
Rises 22:04:37 0° 356° (N) 3,105 ? -16.6°
Reaches altitude 10° 22:08:09 10° 328° (NNW) 2,182 ? -16.9°
Maximum altitude 22:10:09 13° 303° (WNW) 2,003 ? -17.0°
Drops below altitude 10° 22:12:10 10° 278° (W) 2,178 ? -17.2°
Sets 22:15:41 0° 251° (WSW) 3,093 ? -17.4°
